Tracking 35055 objects as of 18-Aug-2026
HD Live streaming from Space Station
objects crossing your sky now

SALYUT 7 DEB


SALYUT 7 DEB is no longer on orbit


NORAD ID: 16752
Int'l Code: 1982-033GX
Launch date: April 19, 1982
Source: Commonwealth of Independent States (former USSR) (CIS)
Launch site: TYURATAM MISSILE AND SPACE COMPLEX (TTMTR)
Decay date: 1986-07-21

Note: This is SATELLITE DEBRIS
Your satellite tracking list
Your tracking list is empty




NASA's NSSDC Master Catalog

Two Line Element Set (TLE):
1 16752U 82033GX  86174.27383101  .00214604 +00000-0 +84918-3 0  9998
2 16752 051.6229 203.1307 0007429 357.0969 003.0569 15.86075079240732
Source of the keplerian elements: AFSPC